N8DH Weather Reports


Display with metric or nautical units.
time (UTC)temp
F
wind
direction
speed
MPH
gust
MPH
rain 1hr
in
rain 24hr
in
rain mn
in
humidity
%
barometer
mb
20260509214545 69 187 8.0 23.0 0.00 0.15 0.00 57 996.8
20260509213118 71 188 11.0 24.0 0.00 0.15 0.00 56 996.8
20260509211515 70 180 15.0 24.0 0.00 0.15 0.00 55 996.8
20260509210106 70 190 12.0 26.0 0.00 0.15 0.00 57 996.8
20260509204638 70 186 10.0 24.0 0.00 0.17 0.00 57 997.3
20260509203012 70 163 9.0 21.0 0.00 0.17 0.00 57 997.5
20260509201603 70 200 12.0 24.0 0.00 0.17 0.00 57 997.7
20260509200022 70 209 11.0 21.0 0.00 0.17 0.00 61 998.0
20260509194600 70 171 12.0 22.0 0.00 0.17 0.00 57 998.2
20260509193144 68 190 10.0 22.0 0.00 0.17 0.00 59 998.3
20260509191512 68 179 12.0 18.0 0.00 0.17 0.00 60 998.6
20260509190042 68 196 10.0 21.0 0.00 0.17 0.00 62 998.8
20260509184601 67 221 13.0 25.0 0.00 0.17 0.00 62 999.0
20260509183140 68 194 11.0 24.0 0.00 0.17 0.00 64 999.1
20260509181639 66 198 11.0 22.0 0.00 0.17 0.00 64 999.3
20260509180043 67 209 12.0 22.0 0.00 0.17 0.00 67 999.2
20260509174601 66 186 10.0 19.0 0.00 0.18 0.00 66 999.1
20260509173011 66 221 10.0 18.0 0.00 0.18 0.00 65 999.1
20260509171600 65 164 8.0 18.0 0.00 0.18 0.00 67 999.4
20260509170032 64 205 10.0 18.0 0.00 0.18 0.00 68 999.5
20260509164607 64 213 8.0 15.0 0.00 0.18 0.00 68 999.6
20260509163140 64 195 8.0 14.0 0.00 0.18 0.00 68 999.6
20260509161507 63 192 7.0 14.0 0.00 0.18 0.00 70 999.4
20260509160059 63 220 9.0 17.0 0.00 0.18 0.00 69 999.9
20260509154537 61 204 3.0 16.0 0.00 0.18 0.00 71 1000.0
20260509153059 62 201 7.0 15.0 0.00 0.18 0.00 72 1000.1
20260509151511 60 201 6.0 18.0 0.00 0.18 0.00 73 1000.3
20260509144531 59 228 6.0 12.0 0.00 0.18 0.00 77 1000.0
20260509143057 59 217 3.0 14.0 0.00 0.18 0.00 80 1000.0
20260509141509 59 277 5.0 9.0 0.00 0.18 0.00 83 1000.0
20260509140055 57 161 3.0 10.0 0.00 0.18 0.00 85 999.9
20260509134507 56 188 4.0 8.0 0.00 0.18 0.00 87 1000.1
20260509133104 56 185 6.0 11.0 0.00 0.18 0.00 87 1000.3
20260509131640 56 227 4.0 11.0 0.00 0.18 0.00 88 1000.2
20260509130047 55 199 4.0 11.0 0.00 0.18 0.00 89 1000.2
20260509124559 55 165 3.0 7.0 0.00 0.18 0.00 91 1000.1
20260509123140 54 181 3.0 7.0 0.00 0.18 0.00 91 1000.4
20260509121511 54 180 2.0 5.0 0.00 0.18 0.00 91 1000.4
20260509120057 54 192 3.0 8.0 0.00 0.18 0.00 92 1000.6
20260509114638 54 173 2.0 4.0 0.00 0.18 0.00 92 1000.6
20260509113149 53 182 0.0 4.0 0.00 0.18 0.00 93 1000.5
20260509111515 53 176 1.0 4.0 0.00 0.18 0.00 92 1000.6
20260509110057 53 192 2.0 5.0 0.00 0.18 0.00 92 1000.5
20260509104523 53 169 2.0 5.0 0.00 0.18 0.00 92 1000.3
20260509103108 53 176 3.0 5.0 0.00 0.18 0.00 92 1000.2
20260509101553 53 202 2.0 5.0 0.00 0.18 0.00 93 1000.2
20260509100011 52 193 1.0 4.0 0.00 0.18 0.00 93 1000.3
20260509094606 52 186 0.0 4.0 0.00 0.18 0.00 93 1000.4
20260509093135 52 178 1.0 3.0 0.00 0.18 0.00 93 1000.4
20260509091515 52 169 0.0 3.0 0.00 0.18 0.00 93 1000.4
20260509090104 52 166 1.0 3.0 0.00 0.18 0.00 93 1000.5
20260509084530 52 184 2.0 5.0 0.00 0.18 0.00 93 1000.8
20260509081641 52 186 1.0 4.0 0.00 0.18 0.00 93 1000.8
20260509080045 52 207 3.0 5.0 0.00 0.18 0.00 93 1001.1
20260509074615 52 180 2.0 5.0 0.00 0.18 0.00 92 1001.0
20260509073139 52 172 1.0 3.0 0.00 0.18 0.00 92 1001.0
20260509071528 52 193 3.0 6.0 0.00 0.18 0.00 92 1001.1
20260509064518 53 201 2.0 7.0 0.00 0.18 0.00 92 1001.3
20260509063050 53 173 2.0 8.0 0.00 0.18 0.00 92 1001.5
20260509061639 53 217 3.0 7.0 0.00 0.18 0.00 92 1001.6
20260509060142 52 167 3.0 8.0 0.00 0.18 0.00 92 1001.6
20260509054520 53 161 3.0 10.0 0.00 0.18 0.00 92 1001.8
20260509053056 53 173 3.0 7.0 0.00 0.18 0.00 92 1001.9
20260509051638 52 188 3.0 6.0 0.00 0.18 0.00 92 1002.0
20260509050150 52 188 2.0 7.0 0.00 0.18 0.00 92 1002.1
20260509044514 52 139 2.0 6.0 0.00 0.18 0.00 92 1002.2
20260509043058 52 155 1.0 4.0 0.01 0.18 0.00 92 1002.2
20260509041523 52 160 1.0 4.0 0.01 0.18 0.00 92 1002.5
20260509040050 52 152 1.0 4.0 0.01 0.18 0.00 92 1002.5
20260509034636 52 159 1.0 3.0 0.01 0.18 0.18 91 1002.8
20260509033027 52 159 1.0 5.0 0.00 0.17 0.17 91 1003.0
20260509031612 52 192 4.0 7.0 0.00 0.17 0.17 91 1003.2
20260509030017 52 162 2.0 4.0 0.00 0.17 0.17 91 1003.0
20260509024609 52 144 3.0 9.0 0.00 0.17 0.17 90 1003.3
20260509023014 52 188 5.0 9.0 0.00 0.17 0.17 89 1003.5
20260509021547 52 182 2.0 7.0 0.00 0.17 0.17 90 1003.1
20260509020058 51 176 1.0 4.0 0.00 0.17 0.17 91 1003.2
20260509014638 52 171 1.0 4.0 0.01 0.17 0.17 91 1003.1
20260509013144 52 165 1.0 7.0 0.01 0.17 0.17 91 1003.1
20260509011528 52 181 2.0 6.0 0.02 0.17 0.17 91 1003.2
20260509010106 52 147 4.0 7.0 0.02 0.17 0.17 91 1003.0
20260509004634 52 190 4.0 8.0 0.02 0.16 0.16 91 1003.1
20260509003145 52 178 5.0 9.0 0.03 0.16 0.16 91 1003.1
20260509001520 51 183 3.0 6.0 0.02 0.15 0.15 91 1003.1
20260509000049 51 154 3.0 7.0 0.03 0.15 0.15 91 1003.2
20260508234606 51 174 4.0 6.0 0.04 0.14 0.14 91 1003.2
20260508233025 51 166 4.0 8.0 0.04 0.13 0.13 91 1003.3
20260508231604 51 205 2.0 6.0 0.05 0.13 0.13 91 1003.2
20260508230136 51 145 1.0 4.0 0.05 0.12 0.12 91 1003.1
20260508224549 51 171 0.0 2.0 0.03 0.10 0.10 90 1003.2
20260508223112 51 151 2.0 6.0 0.04 0.09 0.09 89 1003.2
20260508221544 52 211 2.0 4.0 0.05 0.08 0.08 89 1003.6
20260508220125 52 165 1.0 3.0 0.04 0.07 0.07 89 1003.3